• Processing (Info)

  • MPEC 2000-G25 : 2000 GC2

    The following Minor Planet Electronic Circular may be linked-to from your own Web pages, but must not otherwise be redistributed electronically.

    A form allowing access to any MPEC is at the bottom of this page.


    Read MPEC 2000-G24 Read MPEC 2000-G26


    M.P.E.C. 2000-G25                                Issued 2000 Apr. 6, 16:51 UT
    
         The Minor Planet Electronic Circulars contain information on unusual
             minor planets and routine data on comets.  They are published
       on behalf of Commission 20 of the International Astronomical Union by the
              Minor Planet Center, Smithsonian Astrophysical Observatory,
                              Cambridge, MA 02138, U.S.A.
    
                 Prepared using the Tamkin Foundation Computer Network
    
                 BMARSDEN@CFA.HARVARD.EDU or GWILLIAMS@CFA.HARVARD.EDU
              URL http://cfa-www.harvard.edu/iau/mpc.html  ISSN 1523-6714
    
                                       2000 GC2
    
    Observations:
         K00G02C* C2000 04 02.19890 09 55 02.89 +24 54 32.4          18.5        704
         K00G02C  C2000 04 02.21331 09 54 58.97 +24 53 35.9          18.7        704
         K00G02C  C2000 04 02.22773 09 54 55.06 +24 52 38.8          18.5        704
         K00G02C  C2000 04 02.24214 09 54 51.17 +24 51 43.8          18.2        704
         K00G02C  C2000 04 02.25656 09 54 47.19 +24 50 47.0          18.3        704
         K00G02C  C2000 04 02.90234 09 51 58.51 +24 08 56.0          17.5 R      046
         K00G02C  C2000 04 02.90319 09 51 58.29 +24 08 51.8                      046
         K00G02C  C2000 04 02.90396 09 51 58.10 +24 08 50.7                      046
         K00G02C  C2000 04 02.90517 09 51 57.74 +24 08 44.5                      046
         K00G02C  C2000 04 02.90601 09 51 57.59 +24 08 42.3                      046
         K00G02C  C2000 04 02.90663 09 51 57.36 +24 08 37.6          17.3 R      046
         K00G02C  C2000 04 02.94095 09 51 48.49 +24 06 26.0                      611
         K00G02C  C2000 04 02.94304 09 51 48.02 +24 06 18.7                      611
         K00G02C  C2000 04 03.14828 09 50 56.04 +23 53 07.0          18.2        704
         K00G02C  C2000 04 03.16285 09 50 52.24 +23 52 10.0          19.1        704
         K00G02C  C2000 04 03.17772 09 50 48.38 +23 51 13.3          18.2        704
         K00G02C VC2000 04 03.18206 09 50 47.39 +23 50 55.9                      670
         K00G02C  C2000 04 03.19201 09 50 44.70 +23 50 17.7          18.6        704
         K00G02C  C2000 04 03.20627 09 50 40.97 +23 49 22.7          18.4        704
         K00G02C  C2000 04 03.24927 09 50 29.78 +23 46 37.9                      651
         K00G02C  C2000 04 03.25164 09 50 29.32 +23 46 27.5          18.3 V      651
         K00G02C  C2000 04 03.25164 09 50 29.43 +23 46 26.4                      670
         K00G02C  C2000 04 03.25701 09 50 27.90 +23 46 07.0                      651
         K00G02C  C2000 04 04.11690 09 46 55.74 +22 50 45.2          16.0        704
         K00G02C  C2000 04 04.13190 09 46 52.02 +22 49 47.2          16.0        704
         K00G02C  C2000 04 04.14679 09 46 48.31 +22 48 50.4          16.1        704
         K00G02C  C2000 04 04.16220 09 46 44.49 +22 47 50.9          15.9        704
         K00G02C  C2000 04 04.17762 09 46 40.68 +22 46 50.4          16.5        704
         K00G02C 4C2000 04 04.19503 09 46 36.47 +22 45 42.8                      673
         K00G02C 4C2000 04 04.19706 09 46 36.00 +22 45 34.9                      673
         K00G02C  C2000 04 05.13204 09 42 55.91 +21 45 51.4          16.0        704
         K00G02C  C2000 04 05.14987 09 42 51.73 +21 44 43.1          16.0        704
         K00G02C  C2000 04 05.16798 09 42 47.46 +21 43 34.0          15.7        704
         K00G02C  C2000 04 05.18562 09 42 43.29 +21 42 26.4          15.9        704
         K00G02C 4C2000 04 06.18023 09 39 01.01 +20 39 28.1                      673
         K00G02C 4C2000 04 06.18310 09 39 00.39 +20 39 16.9                      673
         K00G02C 4C2000 04 06.18578 09 38 59.85 +20 39 07.3                      673
    
    Observer details:
    046 Klet.  Observers J. Ticha, M. Tichy.  0.57-m f/5.2 reflector + CCD.
    611 Starkenburg.  Observers M. Busch, K. Sonnenberg, R. Stoss.  0.45-m f/4.4
        reflector + CCD.
    651 Grasslands Observatory, Tucson.  Observer J. E. McGaha.  0.62-m f/5.1
        reflector + CCD.
    670 Camarillo.  Observer J. E. Rogers.  0.30-m f/6.7 Helin Telescope + CCD.
    673 Table Mountain Observatory, Wrightwood.  Observer M. Hicks.  0.6-m
        reflector + CCD.
    704 Lincoln Laboratory ETS, New Mexico.  Observers M. Blythe, F. Shelly,
        M. Bezpalko, M. Elowitz, R. Huber.  Measurers J. Stuart, H. Viggh,
        R. Sayer, J. B. Evans.  1.0-m f/2.15 reflector + CCD.
    
    Orbital elements:
    2000 GC2
    Epoch 2000 Mar. 17.0 TT = JDT 2451620.5                 Williams
    M 268.74454              (2000.0)            P               Q
    n   0.59568582     Peri.  277.69590     +0.12046921     +0.99251941
    a   1.3989146      Node   358.62543     -0.19008209     +0.00347730
    e   0.1874819      Incl.   55.66718     -0.97434900     +0.12203744
    P   1.65           H   17.1           G   0.15
    From 37 observations 2000 Apr. 2-6.
    
    Ephemeris:
    2000 GC2                 a,e,i = 1.40, 0.19, 56                  q = 1.1366
    Date    TT    R. A. (2000) Decl.     Delta      r     Elong.  Phase     V
    2000 03 27    10 26.75   +31 31.1    0.529    1.426   135.9    29.1    17.8
    2000 04 01    10 00.53   +26 12.3    0.544    1.413   130.1    32.7    17.9
    2000 04 06    09 39.68   +20 50.9    0.570    1.399   123.6    36.6    18.1
    2000 04 11    09 23.63   +15 46.2    0.605    1.386   116.9    40.2    18.3
    2000 04 16    09 11.58   +11 07.8    0.647    1.372   110.5    43.2    18.5
    2000 04 21    09 02.72   +06 58.2    0.694    1.358   104.6    45.7    18.7
    2000 04 26    08 56.39   +03 15.8    0.744    1.344    99.3    47.6    18.9
    2000 05 01    08 52.08   -00 02.8    0.795    1.330    94.4    49.1    19.1
    2000 05 06    08 49.37   -03 01.5    0.847    1.316    89.9    50.0    19.2
    2000 05 11    08 47.95   -05 44.1    0.898    1.303    85.9    50.7    19.3
    2000 05 16    08 47.57   -08 13.8    0.948    1.289    82.2    51.0    19.4
    2000 05 21    08 48.02   -10 33.4    0.995    1.276    78.9    51.1    19.5
    2000 05 26    08 49.17   -12 45.2    1.040    1.263    75.9    51.1    19.6
    2000 05 31    08 50.91   -14 51.0    1.082    1.250    73.1    50.9    19.6
    2000 06 05    08 53.17   -16 52.5    1.120    1.238    70.7    50.7    19.7
    2000 06 10    08 55.88   -18 51.2    1.155    1.226    68.4    50.4    19.7
    2000 06 15    08 58.98   -20 48.1    1.185    1.214    66.5    50.1    19.8
    2000 06 20    09 02.44   -22 44.3    1.210    1.204    64.8    49.8    19.8
    2000 06 25    09 06.26   -24 40.6    1.231    1.193    63.3    49.6    19.8
    2000 06 30    09 10.44   -26 37.8    1.247    1.184    62.1    49.4    19.8
    2000 07 05    09 14.99   -28 37.0    1.258    1.175    61.1    49.3    19.8
    
    Gareth V. Williams           (C) Copyright 2000 MPC           M.P.E.C. 2000-G25
    

    Read MPEC 2000-G24 Read MPEC 2000-G26


    MPEC number:

    Enter an MPEC number in one of the following forms:

    • 1997-B01 (the full form)
    • J97B01 (the packed version of the full form)
    • B01 (the abbreviated form)